This is the latest recevied weather packets stored in our database for station/object AI4QX-5. If no packets are shown the sender has not sent any weather packets the latest 10 day(s).
| Time | Temp. | Humidity | Pressure | Rain* | Wind** | Luminosity | Snow |
|---|---|---|---|---|---|---|---|
| 1777689002 | 25.56° C | 45% | 1009.6 hPa | 0 mm | - | - | - |
| 1777688400 | 25.56° C | 44% | 1009.6 hPa | 0 mm | - | - | - |
| 1777687800 | 25.56° C | 44% | 1009.5 hPa | 0 mm | - | - | - |
| 1777687200 | 25° C | 43% | 1009.5 hPa | 0 mm | - | - | - |
| 1777686600 | 25.56° C | 44% | 1009.5 hPa | 0 mm | - | - | - |
| 1777686001 | 25° C | 44% | 1009.3 hPa | 0 mm | - | - | - |
| 1777685400 | 25.56° C | 44% | 1009.2 hPa | 0 mm | - | - | - |
| 1777684800 | 25° C | 43% | 1009 hPa | 0 mm | - | - | - |
| 1777684200 | 25.56° C | 43% | 1009 hPa | 0 mm | - | - | - |
| 1777683600 | 25.56° C | 44% | 1008.8 hPa | 0 mm | - | - | - |
| 1777683000 | 26.11° C | 44% | 1008.7 hPa | 0 mm | - | - | - |
| 1777682401 | 25.56° C | 44% | 1008.6 hPa | 0 mm | - | - | - |
| 1777681800 | 26.11° C | 44% | 1008.4 hPa | 0 mm | - | - | - |
| 1777681200 | 25.56° C | 42% | 1008.3 hPa | 0 mm | - | - | - |
| 1777680600 | 26.11° C | 42% | 1008.2 hPa | 0 mm | - | - | - |
| 1777680000 | 25.56° C | 43% | 1008.1 hPa | 0 mm | - | - | - |
| 1777679400 | 25.56° C | 41% | 1008 hPa | 0 mm | - | - | - |
| 1777678800 | 26.11° C | 42% | 1007.9 hPa | 0 mm | - | - | - |
| 1777678201 | 26.67° C | 45% | 1008 hPa | 0 mm | - | - | - |
| 1777677600 | 25° C | 44% | 1008 hPa | 0 mm | - | - | - |
| 1777677001 | 24.44° C | 44% | 1007.9 hPa | 0 mm | - | - | - |
| 1777676400 | 26.67° C | 41% | 1007.7 hPa | 0 mm | - | - | - |
| 1777675800 | 26.11° C | 41% | 1007.6 hPa | 0 mm | - | - | - |
| 1777675200 | 26.11° C | 41% | 1007.6 hPa | 0 mm | - | - | - |
| 1777674601 | 26.11° C | 41% | 1007.7 hPa | 0 mm | - | - | - |
* Rain latest hour (hover to see other rain measurements)
** Current wind speed in m/s (hover to see current wind gust speed)